Flag for Switzerland Weather past 2 weeks in Grenchen, Solothurn, Switzerland

Now
60 °F

Cool.


Feels Like: 60 °F
Forecast: 50 / 75 °F
Wind: 2 mph from East

Location: Grenchen

Current Time: Sep 18, 2014 at 6:44:56 AM

Latest Report: Sep 18, 2014 at 6:00 AM


Visibility: N/A

Pressure: 29.89 "Hg

Humidity: 95%

Dew point: 59 °F

Location of GrenchenLocation

Historic Weather in Grenchen — Graph

°F

Grenchen temperature yesterday

Maximum temperature yesterday: 76 °F (at 5:00 PM)
Minimum temperature yesterday: 52 °F (at 6:00 AM)
Average temperature yesterday: 63 °F

Past Weeks' High & Low Weather Summary

 TemperatureHumidityPressure
High79 °F (Sep 7, 5:00 PM)100% (Sep 6, 6:00 AM)30.14 "Hg (Sep 6, 6:00 AM)
Low49 °F (Sep 12, 7:00 AM)42% (Sep 16, 5:00 PM)29.80 "Hg (Sep 17, 4:00 PM)
Average62 °F80%29.99 "Hg
* Reported Sep 3 5:00 AM — Sep 18 5:00 AM, Grenchen, Weather by CustomWeather, © 2014

Note: Actual official high and low records may vary slightly from our data, if they occured in-between our weather recording intervals... More about our weather records

Advertising

Grenchen weather history for previous 24 hours

 ConditionsComfort  
Time TempWeatherWind HumidityBarometerVisibility
5:00 AM
Sep 18
61 °FCool.2 mph95%29.89 "HgN/A
4:00 AM61 °FCool.3 mph93%29.90 "HgN/A
3:00 AM62 °FCool.1 mph91%29.90 "HgN/A
2:00 AM62 °FCool.1 mph91%29.89 "HgN/A
1:00 AM63 °FMild.2 mph87%29.89 "HgN/A
12:00 AM62 °FCool.2 mph88%29.88 "HgN/A
11:00 PM
Sep 17
64 °FMild.2 mph84%29.89 "HgN/A
10:00 PM65 °FMild.5 mph82%29.87 "HgN/A
9:00 PM67 °FMild.3 mph75%29.86 "HgN/A
8:00 PM69 °FMild.No wind72%29.84 "HgN/A
7:00 PM72 °FMild.3 mph63%29.82 "HgN/A
6:00 PM75 °FMild.8 mph55%29.80 "HgN/A
5:00 PM76 °FMild.5 mph49%29.80 "HgN/A
4:00 PM76 °FMild.6 mph51%29.80 "HgN/A
3:00 PM74 °FMild.3 mph57%29.83 "HgN/A
2:00 PM72 °FMild.3 mph60%29.85 "HgN/A
1:00 PM71 °FMild.3 mph62%29.87 "HgN/A
12:00 PM66 °FMild.3 mph78%29.90 "HgN/A
11:00 AM62 °FCool.5 mph87%29.93 "HgN/A
10:00 AM61 °FCool.7 mph92%29.92 "HgN/A
9:00 AM58 °FCool.6 mph92%29.93 "HgN/A
8:00 AM54 °FCool.3 mph98%29.95 "HgN/A
7:00 AM53 °FCool.1 mph98%29.96 "HgN/A
6:00 AM52 °FCool.3 mph98%29.96 "HgN/A
Weather by CustomWeather, © 2014

See weather overviewHow to use our weather pages